KI1U Weather Reports


time (UTC)temp
C
wind
direction
speed
KPH
gust
KPH
rain 1hr
cm
rain 24hr
cm
rain mn
cm
humidity
%
barometer
mb
20260505011526 12 118 0.0 6.4 0.00 0.00 0.00 68 1011.8
20260505010031 12 100 0.0 6.4 0.00 0.00 0.00 67 1011.6
20260505004506 12 110 0.0 9.7 0.00 0.00 0.00 66 1011.3
20260505003013 12 215 1.6 8.0 0.00 0.00 0.00 64 1011.1
20260505001516 13 74 3.2 9.7 0.00 0.00 0.00 62 1010.9
20260505000035 13 158 1.6 9.7 0.00 0.00 0.00 60 1010.5
20260504234526 13 166 4.8 16.1 0.00 0.00 0.00 57 1010.3
20260504233006 14 181 1.6 11.3 0.00 0.00 0.00 53 1010.2
20260504231513 15 244 3.2 12.9 0.00 0.00 0.00 50 1010.0
20260504230025 15 29 0.0 11.3 0.00 0.00 0.00 47 1009.9
20260504224523 16 201 3.2 17.7 0.00 0.00 0.00 45 1009.8
20260504223026 16 131 1.6 12.9 0.00 0.00 0.00 43 1009.6
20260504221520 17 248 3.2 17.7 0.00 0.00 0.00 42 1009.6
20260504220015 17 181 4.8 19.3 0.00 0.00 0.00 42 1009.7
20260504214518 18 250 4.8 14.5 0.00 0.00 0.00 40 1009.7
20260504213027 18 216 3.2 17.7 0.00 0.00 0.00 38 1009.5
20260504211530 18 202 3.2 16.1 0.00 0.00 0.00 39 1009.4
20260504210010 18 113 4.8 19.3 0.00 0.00 0.00 38 1009.4
20260504204517 19 303 6.4 22.5 0.00 0.00 0.00 38 1009.4
20260504203020 19 191 4.8 22.5 0.00 0.00 0.00 38 1009.3
20260504201525 19 91 4.8 16.1 0.00 0.00 0.00 37 1009.2
20260504200026 20 15 4.8 17.7 0.00 0.00 0.00 35 1009.2
20260504194514 20 297 4.8 20.9 0.00 0.00 0.00 34 1009.3
20260504193021 20 143 1.6 16.1 0.00 0.00 0.00 36 1009.3
20260504191534 20 231 6.4 25.7 0.00 0.00 0.00 32 1009.4
20260504190027 20 307 8.0 19.3 0.00 0.00 0.00 31 1009.4
20260504184527 20 233 3.2 20.9 0.00 0.00 0.00 29 1009.6
20260504183014 20 169 4.8 19.3 0.00 0.00 0.00 31 1009.6
20260504181523 20 306 6.4 17.7 0.00 0.00 0.00 28 1009.8
20260504180024 20 216 6.4 20.9 0.00 0.00 0.00 29 1010.0
20260504174527 20 335 3.2 17.7 0.00 0.00 0.00 30 1009.9
20260504173033 20 243 4.8 16.1 0.00 0.00 0.00 29 1010.0
20260504171521 20 132 4.8 25.7 0.00 0.00 0.00 28 1009.9
20260504081511 2 311 0.0 0.0 0.00 0.00 0.00 82 1011.8
20260504050025 1 311 0.0 0.0 0.00 0.00 0.00 80 1011.8
20260504044526 1 311 0.0 0.0 0.00 0.00 0.00 80 1011.9
20260504043017 1 311 0.0 0.0 0.00 0.00 0.00 79 1012.0
20260504041518 1 311 0.0 0.0 0.00 0.00 0.00 78 1011.9
20260504040038 1 311 0.0 0.0 0.00 0.00 0.00 76 1011.6
20260504034524 1 311 0.0 0.0 0.00 0.00 0.00 76 1011.7
20260504033028 1 311 0.0 0.0 0.00 0.00 0.00 74 1011.5
20260504031516 2 311 0.0 0.0 0.00 0.00 0.00 74 1011.5
20260504030020 2 311 0.0 0.0 0.00 0.00 0.00 72 1011.4
20260504024522 2 311 0.0 0.0 0.00 0.00 0.00 71 1011.3
20260504023026 2 311 0.0 0.0 0.00 0.00 0.00 70 1011.2
20260504021528 2 311 0.0 0.0 0.00 0.00 0.00 67 1011.2
20260504020016 3 311 0.0 0.0 0.00 0.00 0.00 65 1011.2
20260504014525 3 311 0.0 0.0 0.00 0.00 0.00 63 1011.1
20260504013025 3 311 0.0 0.0 0.00 0.00 0.00 60 1011.0